SL-8 R/B

Last updated on Fri Nov 07 2025 00:02:16 GMT+0000 (Coordinated Universal Time)

1 21938U 92020B 25310.26299942 .00000058 00000+0 44335-4 0 9995 2 21938 82.9302 245.4023 0027677 283.4752 189.7608 13.75520329684160

Satellite not in orbit